| time (UTC) | temp F | wind direction | speed MPH | gust MPH | rain 1hr in | rain 24hr in | rain mn in | humidity % | barometer mb |
| 20260503022336 | 41 | 0.0 | 0.0 | 0.00 | 0.02 | 0.00 | 73 | 1014.5 | |
| 20260503021417 | 41 | 0.0 | 1.0 | 0.00 | 0.02 | 0.00 | 72 | 1014.5 | |
| 20260503020316 | 42 | 0.0 | 0.0 | 0.00 | 0.02 | 0.00 | 71 | 1014.5 | |
| 20260503015316 | 42 | 0.0 | 2.0 | 0.00 | 0.03 | 0.00 | 71 | 1014.5 | |
| 20260503014316 | 42 | 0.0 | 0.0 | 0.00 | 0.04 | 0.00 | 70 | 1014.6 | |
| 20260503013417 | 42 | 0.0 | 0.0 | 0.00 | 0.04 | 0.00 | 69 | 1014.4 | |
| 20260503012356 | 43 | 0 | 2.0 | 3.0 | 0.00 | 0.04 | 0.00 | 70 | 1014.4 |
| 20260503011356 | 43 | 0.0 | 1.0 | 0.00 | 0.04 | 0.00 | 69 | 1014.4 | |
| 20260503010437 | 43 | 22 | 1.0 | 2.0 | 0.00 | 0.05 | 0.00 | 68 | 1014.2 |
| 20260503005336 | 43 | 0 | 2.0 | 2.0 | 0.00 | 0.05 | 0.00 | 67 | 1014.2 |
| 20260503004316 | 43 | 292 | 2.0 | 3.0 | 0.00 | 0.05 | 0.00 | 66 | 1014.0 |
| 20260503003457 | 44 | 337 | 1.0 | 2.0 | 0.00 | 0.05 | 0.00 | 64 | 1013.8 |
| 20260503002316 | 44 | 270 | 2.0 | 4.0 | 0.00 | 0.06 | 0.00 | 63 | 1013.8 |
| 20260503001316 | 44 | 22 | 2.0 | 4.0 | 0.00 | 0.06 | 0.00 | 63 | 1013.8 |
| 20260503000337 | 44 | 0.0 | 1.0 | 0.00 | 0.06 | 0.00 | 62 | 1013.8 | |
| 20260502235416 | 45 | 67 | 2.0 | 3.0 | 0.00 | 0.06 | 0.00 | 61 | 1013.8 |
| 20260502234436 | 45 | 0.0 | 1.0 | 0.00 | 0.06 | 0.00 | 59 | 1013.6 | |
| 20260502233317 | 45 | 45 | 1.0 | 3.0 | 0.00 | 0.07 | 0.00 | 59 | 1013.5 |
| 20260502232337 | 46 | 45 | 1.0 | 2.0 | 0.00 | 0.07 | 0.00 | 60 | 1013.4 |
| 20260502231336 | 46 | 0.0 | 0.0 | 0.00 | 0.08 | 0.00 | 58 | 1013.3 | |
| 20260502230316 | 46 | 45 | 2.0 | 4.0 | 0.00 | 0.08 | 0.00 | 58 | 1013.3 |
| 20260502225336 | 46 | 315 | 2.0 | 4.0 | 0.00 | 0.09 | 0.00 | 58 | 1013.2 |
| 20260502224317 | 46 | 0.0 | 2.0 | 0.00 | 0.09 | 0.00 | 58 | 1013.1 | |
| 20260502223316 | 46 | 0.0 | 2.0 | 0.00 | 0.09 | 0.00 | 58 | 1013.2 | |
| 20260502222316 | 47 | 45 | 2.0 | 4.0 | 0.00 | 0.10 | 0.00 | 58 | 1013.1 |
| 20260502221336 | 46 | 0.0 | 0.0 | 0.00 | 0.10 | 0.00 | 61 | 1013.0 | |
| 20260502220337 | 47 | 0.0 | 1.0 | 0.00 | 0.10 | 0.00 | 59 | 1013.0 | |
| 20260502215316 | 47 | 0.0 | 1.0 | 0.00 | 0.10 | 0.00 | 60 | 1013.0 | |
| 20260502214316 | 47 | 0.0 | 0.0 | 0.00 | 0.10 | 0.00 | 62 | 1013.0 | |
| 20260502213336 | 46 | 0.0 | 1.0 | 0.00 | 0.10 | 0.00 | 61 | 1013.0 | |
| 20260502212358 | 46 | 0.0 | 1.0 | 0.00 | 0.10 | 0.00 | 59 | 1012.9 | |
| 20260502211316 | 46 | 270 | 3.0 | 4.0 | 0.00 | 0.10 | 0.00 | 60 | 1013.0 |
| 20260502210356 | 47 | 292 | 1.0 | 3.0 | 0.00 | 0.10 | 0.00 | 59 | 1013.0 |
| 20260502205317 | 47 | 202 | 3.0 | 4.0 | 0.00 | 0.10 | 0.00 | 57 | 1012.9 |
| 20260502204316 | 47 | 225 | 1.0 | 2.0 | 0.00 | 0.10 | 0.00 | 56 | 1012.9 |
| 20260502203316 | 48 | 0.0 | 0.0 | 0.00 | 0.10 | 0.00 | 58 | 1013.0 | |
| 20260502202335 | 47 | 0.0 | 0.0 | 0.00 | 0.10 | 0.00 | 57 | 1013.0 | |
| 20260502201336 | 47 | 0.0 | 0.0 | 0.00 | 0.10 | 0.00 | 54 | 1013.1 | |
| 20260502200437 | 47 | 270 | 2.0 | 4.0 | 0.00 | 0.10 | 0.00 | 55 | 1013.3 |
| 20260502195315 | 48 | 225 | 3.0 | 4.0 | 0.00 | 0.10 | 0.00 | 55 | 1013.4 |
| 20260502194315 | 48 | 270 | 3.0 | 6.0 | 0.00 | 0.10 | 0.00 | 54 | 1013.4 |
| 20260502193316 | 48 | 247 | 3.0 | 4.0 | 0.00 | 0.10 | 0.00 | 53 | 1013.5 |
| 20260502192315 | 49 | 270 | 2.0 | 4.0 | 0.00 | 0.10 | 0.00 | 54 | 1013.7 |
| 20260502191316 | 48 | 270 | 3.0 | 4.0 | 0.00 | 0.10 | 0.00 | 51 | 1013.7 |
| 20260502190315 | 48 | 247 | 5.0 | 7.0 | 0.00 | 0.10 | 0.00 | 49 | 1013.7 |
| 20260502185315 | 49 | 247 | 5.0 | 9.0 | 0.00 | 0.10 | 0.00 | 54 | 1013.7 |
| 20260502184315 | 48 | 247 | 3.0 | 5.0 | 0.00 | 0.10 | 0.00 | 52 | 1013.7 |
| 20260502183315 | 48 | 292 | 1.0 | 2.0 | 0.00 | 0.10 | 0.00 | 53 | 1013.8 |
| 20260502182456 | 49 | 315 | 2.0 | 4.0 | 0.00 | 0.10 | 0.00 | 50 | 1013.8 |
| 20260502181315 | 49 | 247 | 2.0 | 8.0 | 0.00 | 0.10 | 0.00 | 53 | 1013.8 |
| 20260502180355 | 49 | 292 | 2.0 | 4.0 | 0.00 | 0.10 | 0.00 | 52 | 1013.9 |
| 20260502170456 | 49 | 0 | 1.0 | 2.0 | 0.00 | 0.10 | 0.00 | 54 | 1013.8 |
| 20260502164337 | 48 | 45 | 4.0 | 6.0 | 0.00 | 0.10 | 0.00 | 54 | 1013.9 |
| 20260502163336 | 48 | 0 | 2.0 | 3.0 | 0.00 | 0.10 | 0.00 | 54 | 1013.9 |
| 20260502162315 | 49 | 292 | 2.0 | 3.0 | 0.00 | 0.10 | 0.00 | 55 | 1014.0 |
| 20260502161315 | 49 | 270 | 5.0 | 9.0 | 0.00 | 0.10 | 0.00 | 54 | 1014.1 |
| 20260502160336 | 50 | 247 | 5.0 | 11.0 | 0.00 | 0.10 | 0.00 | 49 | 1014.2 |
| 20260502151316 | 49 | 337 | 1.0 | 3.0 | 0.00 | 0.10 | 0.00 | 52 | 1014.2 |
| 20260502150315 | 48 | 0 | 2.0 | 4.0 | 0.00 | 0.10 | 0.00 | 55 | 1014.2 |
| 20260502130316 | 42 | 67 | 3.0 | 5.0 | 0.00 | 0.10 | 0.00 | 79 | 1014.5 |
| 20260502123336 | 40 | 0.0 | 0.0 | 0.00 | 0.10 | 0.00 | 85 | 1014.5 | |
| 20260502122315 | 40 | 292 | 3.0 | 4.0 | 0.00 | 0.10 | 0.00 | 88 | 1014.5 |
| 20260502121315 | 41 | 315 | 2.0 | 4.0 | 0.00 | 0.10 | 0.00 | 91 | 1014.5 |
| 20260502120315 | 41 | 0.0 | 0.0 | 0.00 | 0.10 | 0.00 | 93 | 1014.5 | |
| 20260502115315 | 40 | 22 | 2.0 | 3.0 | 0.00 | 0.10 | 0.00 | 93 | 1014.5 |
| 20260502114355 | 40 | 0.0 | 2.0 | 0.00 | 0.10 | 0.00 | 94 | 1014.4 | |
| 20260502113315 | 40 | 0.0 | 0.0 | 0.00 | 0.10 | 0.00 | 94 | 1014.4 | |
| 20260502112335 | 40 | 0.0 | 0.0 | 0.00 | 0.10 | 0.00 | 94 | 1014.4 | |
| 20260502111415 | 39 | 0.0 | 0.0 | 0.00 | 0.10 | 0.00 | 94 | 1014.2 | |
| 20260502110417 | 39 | 0.0 | 0.0 | 0.00 | 0.10 | 0.00 | 94 | 1014.2 | |
| 20260502105418 | 38 | 0.0 | 0.0 | 0.00 | 0.10 | 0.00 | 94 | 1014.1 | |
| 20260502104317 | 38 | 0.0 | 0.0 | 0.00 | 0.10 | 0.00 | 93 | 1013.9 | |
| 20260502103337 | 38 | 0.0 | 0.0 | 0.00 | 0.10 | 0.00 | 93 | 1013.8 | |
| 20260502102358 | 39 | 0.0 | 0.0 | 0.00 | 0.10 | 0.00 | 93 | 1013.8 | |
| 20260502101317 | 40 | 0.0 | 0.0 | 0.00 | 0.10 | 0.00 | 93 | 1013.9 | |
| 20260502100317 | 40 | 0.0 | 0.0 | 0.00 | 0.10 | 0.00 | 93 | 1013.8 | |
| 20260502091317 | 40 | 0.0 | 0.0 | 0.00 | 0.10 | 0.00 | 92 | 1013.4 | |
| 20260502090336 | 40 | 0.0 | 0.0 | 0.00 | 0.10 | 0.00 | 92 | 1013.5 | |
| 20260502071316 | 42 | 0.0 | 0.0 | 0.00 | 0.10 | 0.00 | 90 | 1012.9 | |
| 20260502070316 | 41 | 0.0 | 1.0 | 0.00 | 0.10 | 0.00 | 90 | 1013.1 | |
| 20260502065357 | 41 | 0.0 | 0.0 | 0.00 | 0.10 | 0.00 | 90 | 1013.0 | |
| 20260502064316 | 41 | 0.0 | 0.0 | 0.00 | 0.10 | 0.00 | 90 | 1013.1 | |
| 20260502063316 | 41 | 0.0 | 1.0 | 0.00 | 0.10 | 0.00 | 90 | 1013.1 | |
| 20260502062417 | 42 | 0.0 | 0.0 | 0.00 | 0.10 | 0.00 | 90 | 1013.2 | |
| 20260502061336 | 42 | 315 | 1.0 | 2.0 | 0.00 | 0.10 | 0.00 | 90 | 1013.3 |
| 20260502060336 | 42 | 0.0 | 0.0 | 0.00 | 0.10 | 0.00 | 90 | 1013.3 | |
| 20260502055338 | 42 | 0.0 | 0.0 | 0.00 | 0.10 | 0.00 | 90 | 1013.3 | |
| 20260502054316 | 42 | 0.0 | 0.0 | 0.00 | 0.10 | 0.00 | 90 | 1013.5 | |
| 20260502053318 | 42 | 292 | 2.0 | 3.0 | 0.00 | 0.10 | 0.00 | 91 | 1012.9 |
| 20260502052317 | 42 | 0.0 | 1.0 | 0.00 | 0.10 | 0.00 | 91 | 1013.2 | |
| 20260502051336 | 42 | 315 | 1.0 | 3.0 | 0.00 | 0.10 | 0.00 | 92 | 1013.2 |
| 20260502050316 | 43 | 0.0 | 2.0 | 0.00 | 0.10 | 0.00 | 92 | 1013.3 | |
| 20260502045357 | 43 | 337 | 1.0 | 4.0 | 0.00 | 0.10 | 0.00 | 92 | 1013.4 |
| 20260502044336 | 44 | 292 | 1.0 | 3.0 | 0.00 | 0.10 | 0.00 | 92 | 1013.4 |
| 20260502043356 | 44 | 270 | 1.0 | 3.0 | 0.00 | 0.10 | 0.00 | 93 | 1013.3 |
| 20260502042336 | 44 | 0.0 | 0.0 | 0.00 | 0.10 | 0.00 | 93 | 1013.2 | |
| 20260502041437 | 44 | 0.0 | 1.0 | 0.00 | 0.10 | 0.00 | 93 | 1012.9 | |
| 20260502040316 | 44 | 0.0 | 1.0 | 0.00 | 0.10 | 0.00 | 93 | 1012.9 | |
| 20260502035317 | 44 | 247 | 2.0 | 3.0 | 0.01 | 0.10 | 0.10 | 93 | 1012.9 |
| 20260502034336 | 44 | 247 | 1.0 | 3.0 | 0.01 | 0.10 | 0.10 | 93 | 1012.8 |
| 20260502033317 | 44 | 0.0 | 0.0 | 0.01 | 0.10 | 0.10 | 93 | 1012.5 | |
| 20260502032316 | 44 | 0.0 | 0.0 | 0.02 | 0.10 | 0.10 | 93 | 1012.6 | |
| 20260502031336 | 44 | 0.0 | 1.0 | 0.02 | 0.10 | 0.10 | 93 | 1012.8 | |
| 20260502030336 | 44 | 0.0 | 0.0 | 0.02 | 0.10 | 0.10 | 93 | 1012.8 | |
| 20260502025316 | 45 | 0.0 | 1.0 | 0.02 | 0.09 | 0.09 | 93 | 1012.9 | |
| 20260502024317 | 45 | 0.0 | 0.0 | 0.03 | 0.09 | 0.09 | 94 | 1012.9 | |
| 20260502023316 | 45 | 0.0 | 0.0 | 0.03 | 0.09 | 0.09 | 93 | 1012.8 |